www.pogodaiklimat.ru

Погода и климат >> Архив погоды >> Австралия >> Западная Австралия >> Форрест


ПОГОДА в Форресте

  • Прогноз погоды в Форресте
  • Монитор погоды в Форресте

АРХИВ ПОГОДЫ в Форресте

Время (UTC), дата Ветер
(напр.,м/с)
 
Видим.   Явления Облачность Т
(С)
Тd
(С)
f
(%)
Тe
(С)
Тes
(С)
Комфортность P
(гПа)
Po
(гПа)
Тmin
(С)
Tmax
(С)
R
(мм)
R24
(мм)
S
(см)
10 16.07 Ю 4 н/о н/о +10.5 +2.1 56 +8 +8 1029.6 1010.2
12 16.07 ЮЗ 4 н/о н/о +6.7 +0.6 65 +4 +4 1030.2 1010.7
13 16.07 Ю 4 н/о н/о +5.8 +1.0 71 +2 +2 1030.4 1010.9 +16.0
15 16.07 В 3 н/о н/о +3.9 +1.3 83 +1 +1 1029.6 1010.2
16 16.07 В 2 н/о н/о +3.2 +1.4 88 0 0 1028.9 1009.5
18 16.07 В 2 н/о н/о +2.5 +1.6 94 -0 -0 1028.5 1009.1
19 16.07 штиль 0 500 м 10/10 <50 м
[]
+1.1 +0.5 96 -0 -0 1028.3 1008.9
21 16.07 В 2 н/о н/о -0.6 -0.9 98 -5 -5 1027.8 1008.4
22 16.07 В 2 500 м 10/10 50 м
[]
-0.1 -0.4 98 -4 -4 1028.0 1008.6
00 17.07 С 4 н/о н/о +5.6 +5.5 99 +2 +2 1028.6 1009.2
01 17.07 С 4 н/о н/о +10.3 +6.5 77 +8 +8 1028.6 1009.2 -0.7
03 17.07 СЗ 3 н/о н/о +14.7 +4.4 50 +14 +14 1027.1 1007.7
04 17.07 С 3 н/о н/о +16.5 +2.5 39 +16 +16 1025.6 1006.2
06 17.07 С 3 н/о н/о +18.3 0.0 29 +19 +19 1023.9 1004.6
07 17.07 СЗ 2 н/о н/о +18.4 -1.4 26 +19 +19 1023.4 1004.1
09 17.07 СЗ 2 н/о н/о +15.3 -2.2 30 +16 +16 1023.1 1003.8
10 17.07 штиль 0 н/о н/о +12.3 -1.6 38 +12 +12 1023.5 1004.2
12 17.07 СВ 2 н/о н/о +8.1 -2.8 46 +7 +7 1023.8 1004.5
13 17.07 СВ 3 н/о н/о +6.6 -3.3 49 +4 +4 1023.5 1004.2 +19.4
15 17.07 С 3 н/о н/о +4.2 -3.5 57 +1 +1 1022.8 1003.5
16 17.07 С 3 н/о н/о +4.7 -2.6 59 +2 +2 1022.2 1002.9
18 17.07 С 4 н/о н/о +2.3 -3.8 64 -2 -2 1021.9 1002.6
19 17.07 С 4 н/о н/о +2.9 -2.8 66 -1 -1 1021.4 1002.1
21 17.07 С 4 н/о н/о +1.4 -3.7 69 -3 -3 1021.5 1002.2
22 17.07 С 4 н/о н/о +2.0 -3.3 68 -3 -3 1021.8 1002.5
00 18.07 С 6 н/о н/о +9.4 -0.2 51 +6 +6 1022.1 1002.8
01 18.07 СЗ 6 н/о н/о +15.0 +0.1 36 +14 +14 1022.3 1003.0 +1.4
03 18.07 З 6 н/о н/о +20.6 -2.5 21 +20 +20 1021.1 1001.8
04 18.07 З 5 н/о н/о +21.7 -3.6 18 +21 +21 комфорт 1019.9 1000.6
06 18.07 З 5 н/о н/о +22.4 -5.5 15 +21 +21 комфорт 1018.7 999.5
07 18.07 З 3 н/о н/о +22.2 -5.6 15 +21 +21 комфорт 1018.6 999.4
09 18.07 З 2 н/о н/о +18.0 -5.9 19 +19 +19 1018.7 999.5
10 18.07 З 2 н/о н/о +14.6 -6.3 23 +15 +15 1019.2 1000.0
12 18.07 штиль 0 н/о н/о +10.8 -6.1 30 +11 +11 1020.1 1000.8
13 18.07 штиль 0 н/о н/о +8.1 -8.0 31 +8 +8 1020.2 1000.9 +23.1
15 18.07 ЮВ 3 н/о н/о +6.5 -7.1 37 +4 +4 1019.7 1000.4
16 18.07 В 3 н/о н/о +4.3 -9.1 37 +2 +2 1019.0 999.8
18 18.07 В 1 н/о н/о +1.8 -9.4 43 +2 +2 1018.8 999.6
19 18.07 В 2 н/о н/о +1.7 -8.7 46 -1 -1 1018.5 999.3
21 18.07 В 3 н/о н/о -0.3 -10.5 46 -4 -4 1018.1 998.9
22 18.07 СВ 3 н/о н/о -0.2 -9.6 49 -4 -4 1018.2 999.0
00 19.07 СВ 2 н/о н/о +8.5 -6.8 33 +7 +7 1018.2 999.0
01 19.07 С 5 н/о н/о +15.9 -4.6 24 +15 +15 1018.0 998.8 -0.8
03 19.07 С 7 н/о н/о +22.2 -2.5 19 +21 +21 комфорт 1016.1 996.9
04 19.07 СЗ 7 н/о н/о +23.9 -6.2 13 +22 +22 комфорт 1014.6 995.4
06 19.07 СЗ 7 н/о н/о +24.7 -7.7 11 +22 +22 комфорт 1012.6 993.5
07 19.07 СЗ 7 н/о н/о +24.4 -7.9 11 +22 +22 комфорт 1012.1 993.0
09 19.07 СЗ 5 н/о н/о +17.6 -11.1 13 +17 +17 1011.9 992.8
10 19.07 С 5 н/о н/о +13.9 -11.5 16 +13 +13 1011.9 992.8
12 19.07 С 5 н/о н/о +10.8 -10.6 21 +9 +9 1011.8 992.7
13 19.07 С 6 н/о н/о +11.2 -9.1 23 +9 +9 1011.2 992.1 +25.1
15 19.07 С 5 н/о н/о +9.1 -9.4 26 +7 +7 1010.4 991.3
16 19.07 С 6 н/о н/о +9.5 -9.0 26 +7 +7 1009.4 990.3
18 19.07 С 6 н/о н/о +9.5 -9.5 25 +7 +7 1007.9 988.9
19 19.07 С 6 н/о н/о +9.1 -9.4 26 +6 +6 1006.9 987.9
21 19.07 С 6 н/о н/о +7.9 -9.0 29 +5 +5 1006.6 987.6
22 19.07 СЗ 6 н/о н/о +8.6 -9.3 27 +5 +5 1007.3 988.3
00 20.07 СЗ 8 н/о н/о +13.7 -8.2 21 +12 +12 1007.8 988.8
01 20.07 СЗ 10 н/о н/о +18.0 -2.3 25 +17 +17 1008.2 989.2 +7.8
03 20.07 З 12 н/о н/о +20.2 +3.0 32 +20 +20 1008.7 989.7
04 20.07 З 14 н/о 10/10 1500 м
[]
+19.1 +4.5 38 +18 +18 1009.3 990.2
06 20.07 ЮЗ 13 н/о н/о +18.3 +1.3 32 +17 +17 1011.2 992.1
07 20.07 З 11 н/о н/о +18.2 -0.1 29 +17 +17 1012.0 992.9
09 20.07 ЮЗ 8 н/о н/о +15.2 +1.4 39 +13 +13 1014.3 995.1
10 20.07 ЮЗ 5 н/о н/о +13.2 +1.2 44 +11 +11 1015.6 996.4
12 20.07 З 3 н/о н/о +8.2 -0.3 55 +6 +6 1017.6 998.4
13 20.07 ЮЗ 4 н/о н/о +7.0 -0.7 58 +4 +4 1018.0 998.8 +21.1
15 20.07 З 5 н/о н/о +5.2 -1.5 62 +1 +1 1018.1 998.9
16 20.07 СЗ 5 н/о н/о +4.0 -2.4 63 -0 -0 1017.9 998.7
18 20.07 СЗ 5 н/о н/о +3.9 -2.5 63 -1 -1 1017.9 998.7
19 20.07 СЗ 5 н/о н/о +4.0 -2.6 62 -0 -0 1017.6 998.4
21 20.07 СЗ 4 н/о н/о +2.7 -3.2 65 -2 -2 1017.9 998.7
22 20.07 СЗ 5 н/о н/о +2.0 -3.5 67 -3 -3 1018.4 999.2
00 21.07 З 6 н/о н/о +9.5 -0.7 49 +6 +6 1018.8 999.6
01 21.07 СЗ 7 н/о н/о +13.4 +1.7 45 +11 +11 1019.0 999.8 +1.8
03 21.07 З 9 н/о н/о +17.3 +3.6 40 +16 +16 1017.7 998.5
04 21.07 З 9 н/о н/о +17.9 +3.4 38 +17 +17 1016.4 997.2
06 21.07 СЗ 9 н/о н/о +19.4 +2.3 32 +19 +19 1014.7 995.5
07 21.07 СЗ 8 н/о н/о +19.5 +2.4 32 +19 +19 1014.7 995.5
09 21.07 СЗ 6 н/о н/о +16.6 +1.5 36 +16 +16 1014.4 995.2
10 21.07 СЗ 5 н/о н/о +12.5 +0.3 43 +11 +11 1014.9 995.7
12 21.07 СЗ 5 н/о н/о +10.2 -0.6 47 +8 +8 1015.6 996.4
13 21.07 СЗ 5 н/о н/о +8.9 -0.4 52 +6 +6 1015.6 996.4 +20.1
15 21.07 СЗ 6 н/о н/о +10.5 +0.5 50 +8 +8 1014.8 995.6
16 21.07 СЗ 7 н/о н/о +10.2 0.0 49 +7 +7 1014.3 995.1
18 21.07 СЗ 6 н/о н/о +9.2 +0.4 54 +6 +6 1013.9 994.8
19 21.07 СЗ 6 н/о н/о +8.4 +0.9 59 +5 +5 1013.5 994.4
21 21.07 СЗ 6 н/о н/о +8.5 +1.9 63 +5 +5 1013.8 994.7
22 21.07 СЗ 6 н/о н/о +8.0 +1.8 65 +4 +4 1014.1 995.0
00 22.07 З 9 н/о н/о +13.3 +4.7 56 +11 +11 1015.7 996.5
01 22.07 З 11 н/о н/о +15.8 +6.3 53 +14 +14 1016.1 996.9 +7.8
03 22.07 З 9 н/о н/о +19.0 +7.1 46 +19 +19 1015.7 996.5
04 22.07 З 10 н/о 5/5 1000 м
[]
+19.7 +6.8 43 +20 +20 1015.0 995.8
06 22.07 З 9 н/о н/о +20.3 +5.9 39 +21 +21 комфорт 1014.6 995.4
07 22.07 З 9 н/о 1/1 1500 м
[]
+20.1 +4.6 36 +20 +20 1015.1 995.9
09 22.07 З 5 н/о н/о +16.4 +2.8 40 +16 +16 1016.3 997.1
10 22.07 З 5 н/о н/о +14.4 +2.9 46 +13 +13 1017.6 998.4
12 22.07 ЮЗ 3 н/о н/о +10.5 +1.3 53 +9 +9 1019.6 1000.3
13 22.07 Ю 3 н/о н/о +9.1 +2.4 63 +7 +7 1019.9 1000.6 +21.0
15 22.07 Ю 2 н/о н/о +5.7 +0.9 71 +3 +3 1020.4 1001.1
16 22.07 Ю 1 н/о н/о +4.3 -0.1 73 +3 +3 1020.4 1001.1
18 22.07 СЗ 5 н/о н/о +4.1 +0.1 75 -1 -1 1020.5 1001.2
19 22.07 СЗ 5 н/о н/о +3.5 +0.2 79 -1 -1 1020.8 1001.5
21 22.07 СЗ 5 н/о н/о +3.4 +0.3 80 -2 -2 1021.7 1002.4
22 22.07 СЗ 5 н/о н/о +3.4 +0.8 83 -2 -2 1022.6 1003.3
00 23.07 СЗ 6 н/о н/о +9.2 +4.8 74 +6 +6 1023.9 1004.6
01 23.07 СЗ 5 н/о н/о +13.2 +6.3 63 +11 +11 1024.6 1005.3 +2.9
03 23.07 З 5 н/о н/о +16.8 +5.4 47 +16 +16 1024.7 1005.4
04 23.07 СЗ 6 н/о н/о +17.8 +5.4 44 +17 +17 1023.7 1004.4
06 23.07 З 4 н/о н/о +18.7 +3.3 36 +19 +19 1023.1 1003.8
07 23.07 З 5 н/о н/о +19.3 +2.6 33 +19 +19 1023.1 1003.8

 

Местоположение метеостанции Форрест (Западная Австралия, Австралия): широта -30.83 долгота 128.11 высота над уровнем моря 160 м.

В архиве по умолчанию представлена погода в Форресте за последнюю неделю. Архивные данные за месяц целиком и за предыдущие месяцы, начиная с января 2011 года, Вы можете получить, выбрав интересующий диапазон дат из раскрывающегося списка и нажав кнопку "Ввод!".


*Определитесь, кто Вы:
робот инопланетянин человек

Внимание! Время в таблицах - всемирное. Для получения местного времени необходимо прибавить поправку, которая равна 8 ч.

Смотрите также архив погоды в соседних городах и на ближайших метеорологических станциях:

Погода в Евкле (Западная Австралия, Австралия) (120 км)
Погода в Ред Рокс Пойнт (Западная Австралия, Австралия) (162 км)
Погода в Наллаборе (Южная Австралия, Австралия) (274 км)
Погода в Уорбертоне (Западная Австралия, Австралия) (544 км)
Погода в Сидуне (Южная Австралия, Австралия) (550 км)
Погода в Лавертоне (Западная Австралия, Австралия) (603 км)
Погода в Таркуле (Южная Австралия, Австралия) (618 км)
Погода в Норсмане (Западная Австралия, Австралия) (622 км)
Погода в Калгурли-Боулдере (Западная Австралия, Австралия) (636 км)
Погода в Эрнабелле (Южная Австралия, Австралия) (644 км)

Пояснения к столбцам:

Ветер - указаны скорость ветра в м/с - средняя за 10 мин, порывы в срок и между сроками (в фигурных скобках) и направление, откуда дует ветер: С - северный, СВ - северо-восточный, В - восточный, ЮВ - юго-восточный, Ю - южный, ЮЗ - юго-западный, З - западный, СЗ - северо-западный.
Видимость - горизонтальная дальность видимости в метрах или километрах. При видимости от 1 до 10 км при отсутствии осадков обычно наблюдается дымка, при ухудшении видимости до 1 км и менее - туман. В сухую погоду видимость может ухудшаться дымом, пылью или мглою.
Явления - указаны атмосферные явления, наблюдавшиеся в срок или в последний час перед сроком; фигурными скобками обозначены явления, наблюдавшиеся между сроками (за 1-3 часа до срока); квадратными скобками обозначены град или гололедные отложения с указанием их диаметра в мм.
Облачность - указаны через наклонную черту общая и нижняя облачность в баллах и высота нижней границы облаков в метрах; квадратными скобками обозначены формы облаков: Ci - перистые, Cs - перисто-слоистые, Cc - перисто-кучевые, Ac - высококучевые, As - высокослоистые, Sc - слоисто-кучевые, Ns - слоисто-дождевые, Cu - кучевые, Cb - кучево-дождевые. Подробнее классификацию облаков см. в Атласе облаков (PDF).
T - Температура воздуха - температура, измеренная на высоте 2 м над землей.
Td - Температура точки росы - температура, при понижении до которой содержащийся в воздухе водяной пар достигнет насыщения.
f - Относительная влажность воздуха - влажноcть воздуха, измеренная на высоте 2 м над землей.
Te - Эффективная температура - температура, которую ощущает одетый по сезону человек в тени. Характеристика душности погоды. При расчете учитывается влияние влажности воздуха и скорости ветра на теплоощущения человека.
Tes - Эффективная температура на солнце - температура, которую ощущает человек, с поправкой на солнечный нагрев. Характеристика знойности погоды. Зависит от высоты солнца над горизонтом, облачности и скорости ветра. Ночью, в пасмурную погоду, а также при ветре 12 м/с и более поправка равна нулю.
P - Атмосферное давление - приведенное к уровню моря атмосферное давление.
Po - Атмосферное давление - измеренное на уровне метеостанции атмосферное давление.
Tmin - Минимальная температура - минимум температуры воздуха на высоте 2 м над землей.
Tmax - Максимальная температура - максимум температуры воздуха на высоте 2 м над землей.
R - Количество осадков - Количество выпавших осадков за период времени, мм. При наведении курсора мыши на число - период времени, за который выпало указанное количество осадков.
R24 - Количество осадков - Количество выпавших осадков за 24 часа, мм.
S - Снежный покров - Высота снежного покрова, см. При наведении курсора мыши на число - состояние снежного покрова и степень покрытия местности в баллах.